Simultaneous Nadir Overpasses (SNOs) Predictions

Prediction of SNOs between METOP-A and TERRA Satellite Orbit:

Table of predicted SNOs for the next 14.0 days since TLE Epoch: 5/2/2020
Index Date (METOP-A) Time (METOP-A) Lat,Lon (METOP-A) SZA (METOP-A ) Date (TERRA) Time (TERRA) Lat,Lon (TERRA) SZA (TERRA ) Distance(km) Time Diff (sec)
1 05/04/2020 07:23:45 81.42, 118.78 68.51 05/04/2020 07:23:56 81.42, 118.60 68.50 3.11 11
2 05/04/2020 08:14:26 -81.42, -73.94 111.51 05/04/2020 08:13:23 -81.41, -73.92 111.54 1.12 63
3 05/07/2020 02:58:07 81.42,-175.14 67.70 05/07/2020 02:58:13 81.41,-175.06 67.71 1.84 6
4 05/07/2020 03:48:47 -81.42, -7.44 112.27 05/07/2020 03:47:40 -81.41, -7.54 112.32 1.91 67
5 05/09/2020 22:32:29 81.42,-108.68 66.96 05/09/2020 22:32:33 81.41,-108.70 66.95 1.32 4
6 05/09/2020 23:23:09 -81.41, 59.05 113.01 05/09/2020 23:22:00 -81.41, 58.87 113.07 3.19 69
7 05/12/2020 18:06:51 81.42, -42.23 66.26 05/12/2020 18:06:55 81.41, -42.31 66.24 1.73 4
8 05/12/2020 18:57:32 -81.42, 125.14 113.75 05/12/2020 18:56:22 -81.41, 125.29 113.77 2.85 70
9 05/15/2020 13:41:12 81.42, 24.20 65.59 05/15/2020 13:41:18 81.41, 24.10 65.58 1.98 6




NCC Satellite Simultaneous Nadir Overpasses (SNOs) Prediction Service
